Regional Weather Roundup
Issued by NWS

Home | Current Version | Previous Version | Text Only | Print | Product List | Glossary Off
Versions: 1 2 3 4 5 6 7 8 9 10 11 12 13 14 15 16 17 18 19 20 21 22 23 24 25 26 27 28 29 30 31 32 33 34 35 36 37 38 39 40 41 42 43 44 45 46 47 48 49 50

000
ASUS45 KSLC 302310
RWRUT

UTAH REGIONAL WEATHER ROUNDUP
NATIONAL WEATHER SERVICE SALT LAKE CITY UT
500 PM MDT WED JUL 30 2014

UTZ001>011-023>025-310000-

NORTHERN UTAH

CITY           SKY/WX    TMP DP  RH WIND       PRES   REMARKS
HILL AFB       MOSUNNY   78  57  49 E17G23    30.22F
LOGAN          CLOUDY    75  53  46 SE10G22   30.21F
OGDEN          PTSUNNY   79  54  41 SE6       30.18F
PROVO AIRPORT  NOT AVBL
SALT LAKE CITY PTSUNNY   81  56  42 E7        30.16F
VERNAL         LGT RAIN  69  57  65 NW8       30.23F
WENDOVER       SUNNY     84  54  34 SE10G17   30.16F
HEBER CITY     PTSUNNY   72  55  56 CALM      30.27F
WEST JORDAN    MOSUNNY   79  61  53 N8        30.20F

$$

UTZ012>022-026-027-310000-

SOUTHERN UTAH

CITY           SKY/WX    TMP DP  RH WIND       PRES   REMARKS
BRYCE CANYON   PTSUNNY   76  45  33 W12       30.35S
CEDAR CITY     SUNNY     86  45  23 VRB3      30.19F
MILFORD        MOSUNNY   88  50  27 NE14G21   30.15F
MOAB/CYNLANDS  SUNNY     85  52  32 NW5       30.09F
PRICE          CLOUDY    81  51  35 SW7       30.20S
ST GEORGE      MOCLDY   100  52  19 S7        29.95F HX  98
KANAB          PTSUNNY   90  48  24 SW9       30.12F

$$

REGIONAL REPORTS     COLORADO/ARIZONA

CITY           SKY/WX    TMP DP  RH WIND       PRES   REMARKS
CRAIG, CO      PTSUNNY   56  32  40 NE8       30.27F
GRAND JUNCTION PTSUNNY   81  53  37 NW14      30.13F
RIFLE          LGT RAIN  74  58  57 N8        30.20S
MONTROSE       MOSUNNY   81  53  37 VRB7      30.19F
CORTEZ         PTSUNNY   87  46  24 W12G18    30.17F
PAGE, AZ       MOSUNNY   96  48  19 VRB3      30.03F HX  92
GRAND CANYON   MOSUNNY   86  44  23 SW12G20   30.26F
KINGMAN        MOSUNNY   98  49  18 SW8       30.01F HX  95
FLAGSTAFF      MOSUNNY   82  42  24 SW12G18   30.30F

$$

REGIONAL REPORTS    NEVADA/IDAHO/WYOMING

CITY           SKY/WX    TMP DP  RH WIND       PRES   REMARKS
LAS VEGAS, NV  MOSUNNY  103  43  13 NW6       29.87F HX  98
ELY            SUNNY     84  41  21 N17G23    30.26F
ELKO           PTSUNNY   80  48  32 E6        30.19S
POCATELLO, ID  MOSUNNY   86  46  24 NE12      30.18F
BURLEY         SUNNY     86  44  23 E6        30.14F
EVANSTON, WY   CLOUDY    61  52  72 E14G23    30.39F
ROCK SPRINGS   CLOUDY    61  53  75 NE16      30.38F

$$



USA.gov is the U.S. government's official web portal to all federal, state and local government web resources and services.